NOZ31F ENGM-EGKK

Flight info

Callsign NOZ31F
Flight time 1h 58m
Altitude 36000
Route VIPPA DCT UPGAS DCT TIPAN DCT WECOW DCT BINBO DCT AKOKO N866 BUKUT P7 BARMI
Aircraft B738/M-SDE2E3FGHIRWXY/LB1

Departure

Time 2026-05-07 10:53
Airport Oslo-Gardermoen International Airport (ENGM)

Arrival

Time 2026-05-07 12:52
Airport London Gatwick Airport (EGKK)
Time Latitude Longitude Altitude Speed Heading
2026-05-07 10:12 60.19416 11.10464 684 ft 0 kts 196°
2026-05-07 10:42 60.19430 11.10471 684 ft 4 kts 196°
2026-05-07 10:42 60.19456 11.10486 679 ft 4 kts 196°
2026-05-07 10:43 60.19482 11.10501 684 ft 4 kts 196°
2026-05-07 10:43 60.19502 11.10513 679 ft 4 kts 182°
2026-05-07 10:43 60.19522 11.10499 679 ft 4 kts 117°
2026-05-07 10:43 60.19527 11.10474 682 ft 1 kts 106°
2026-05-07 10:44 60.19520 11.10524 682 ft 4 kts 106°
2026-05-07 10:44 60.19513 11.10576 680 ft 4 kts 106°
2026-05-07 10:44 60.19505 11.10628 682 ft 4 kts 106°
2026-05-07 10:44 60.19498 11.10680 677 ft 4 kts 106°
2026-05-07 10:45 60.19491 11.10731 682 ft 3 kts 106°
2026-05-07 10:45 60.19490 11.10739 682 ft 0 kts 106°
2026-05-07 10:49 60.19483 11.10787 682 ft 8 kts 106°
2026-05-07 10:49 60.19463 11.10921 681 ft 11 kts 106°
2026-05-07 10:49 60.19443 11.11062 681 ft 10 kts 105°
2026-05-07 10:50 60.19424 11.11199 682 ft 10 kts 105°
2026-05-07 10:50 60.19458 11.11302 679 ft 10 kts 18°
2026-05-07 10:50 60.19522 11.11340 681 ft 10 kts 16°
2026-05-07 10:50 60.19594 11.11383 682 ft 12 kts 16°
2026-05-07 10:51 60.19685 11.11432 682 ft 14 kts 14°
2026-05-07 10:51 60.19732 11.11551 682 ft 12 kts 104°
2026-05-07 10:51 60.19708 11.11716 679 ft 12 kts 104°
2026-05-07 10:51 60.19669 11.11859 683 ft 12 kts 140°
2026-05-07 10:52 60.19598 11.11936 682 ft 12 kts 163°
2026-05-07 10:52 60.19546 11.11917 682 ft 0 kts 196°
2026-05-07 10:52 60.19545 11.11916 682 ft 1 kts 196°
2026-05-07 10:52 60.19449 11.11860 682 ft 42 kts 196°
2026-05-07 10:53 60.18940 11.11567 683 ft 109 kts 196°
2026-05-07 10:53 60.18370 11.11237 682 ft 147 kts 195°
2026-05-07 10:53 60.17280 11.10607 1014 ft 168 kts 194°
2026-05-07 10:53 60.16181 11.10017 1849 ft 166 kts 195°
2026-05-07 10:54 60.15013 11.09416 2382 ft 184 kts 195°
2026-05-07 10:54 60.13689 11.08678 2662 ft 210 kts 199°
2026-05-07 10:54 60.12224 11.07951 3029 ft 223 kts 186°
2026-05-07 10:54 60.10651 11.07686 3493 ft 232 kts 186°
2026-05-07 10:55 60.09012 11.07360 3979 ft 240 kts 187°
2026-05-07 10:55 60.07285 11.06983 4303 ft 258 kts 187°
2026-05-07 10:55 60.05479 11.06509 4960 ft 265 kts 193°
2026-05-07 10:55 60.03724 11.05442 5834 ft 264 kts 200°
2026-05-07 10:56 60.01993 11.04153 6604 ft 268 kts 202°
2026-05-07 10:56 60.00237 11.02813 6952 ft 271 kts 202°
2026-05-07 10:56 59.98465 11.01469 7103 ft 276 kts 202°
2026-05-07 10:56 59.96658 11.00114 7852 ft 277 kts 202°
2026-05-07 10:57 59.94855 10.98774 8709 ft 277 kts 203°
2026-05-07 10:57 59.93044 10.97386 9516 ft 280 kts 204°
2026-05-07 10:57 59.91220 10.95964 10259 ft 283 kts 204°
2026-05-07 10:57 59.89328 10.94482 10543 ft 304 kts 204°
2026-05-07 10:58 59.87286 10.92883 10731 ft 325 kts 204°
2026-05-07 10:58 59.85134 10.91207 11184 ft 337 kts 204°
2026-05-07 10:58 59.82939 10.89505 11858 ft 340 kts 204°
2026-05-07 10:58 59.80724 10.87796 12617 ft 342 kts 205°
2026-05-07 10:59 59.78496 10.86081 13375 ft 345 kts 205°
2026-05-07 10:59 59.76246 10.84351 14121 ft 348 kts 205°
2026-05-07 10:59 59.73978 10.82608 14840 ft 351 kts 205°
2026-05-07 10:59 59.71694 10.80853 15573 ft 352 kts 205°
2026-05-07 11:00 59.69401 10.79095 16330 ft 354 kts 205°
2026-05-07 11:00 59.67091 10.77326 17033 ft 358 kts 205°
2026-05-07 11:00 59.64873 10.75630 17697 ft 361 kts 206°
2026-05-07 11:00 59.62518 10.73832 18388 ft 364 kts 206°
2026-05-07 11:01 59.60142 10.72020 19000 ft 368 kts 206°
2026-05-07 11:01 59.57747 10.70196 19591 ft 371 kts 206°
2026-05-07 11:01 59.55333 10.68362 20181 ft 373 kts 206°
2026-05-07 11:01 59.52897 10.66514 20750 ft 377 kts 207°
2026-05-07 11:02 59.50441 10.64653 21327 ft 380 kts 207°
2026-05-07 11:02 59.48018 10.62820 21894 ft 383 kts 207°
2026-05-07 11:02 59.45525 10.60937 22411 ft 386 kts 207°
2026-05-07 11:02 59.43009 10.59038 22933 ft 389 kts 207°
2026-05-07 11:03 59.40465 10.57123 23449 ft 393 kts 207°
2026-05-07 11:03 59.37976 10.55252 23896 ft 396 kts 207°
2026-05-07 11:03 59.35394 10.53314 24326 ft 399 kts 207°
2026-05-07 11:03 59.32791 10.51364 24725 ft 402 kts 207°
2026-05-07 11:04 59.30190 10.49418 25138 ft 405 kts 207°
2026-05-07 11:04 59.27554 10.47451 25528 ft 409 kts 207°
2026-05-07 11:04 59.24887 10.45465 25925 ft 411 kts 207°
2026-05-07 11:04 59.22206 10.43471 26306 ft 414 kts 207°
2026-05-07 11:05 59.19499 10.41459 26673 ft 417 kts 207°
2026-05-07 11:05 59.16777 10.39438 26998 ft 421 kts 207°
2026-05-07 11:05 59.14029 10.37402 27330 ft 424 kts 207°
2026-05-07 11:05 59.11266 10.35361 27682 ft 427 kts 207°
2026-05-07 11:06 59.08478 10.33305 28056 ft 429 kts 207°
2026-05-07 11:06 59.05676 10.31242 28398 ft 432 kts 207°
2026-05-07 11:06 59.02855 10.29167 28715 ft 435 kts 207°
2026-05-07 11:06 59.00016 10.27083 29030 ft 438 kts 207°
2026-05-07 11:07 58.97155 10.24985 29343 ft 440 kts 207°
2026-05-07 11:07 58.94389 10.22528 29628 ft 436 kts 216°
2026-05-07 11:07 58.91893 10.19293 29985 ft 428 kts 226°
2026-05-07 11:07 58.89629 10.15619 30379 ft 426 kts 226°
2026-05-07 11:08 58.87400 10.11978 30730 ft 425 kts 226°
2026-05-07 11:08 58.85186 10.08375 31093 ft 424 kts 226°
2026-05-07 11:08 58.82925 10.04717 31460 ft 423 kts 226°
2026-05-07 11:08 58.80665 10.01083 31813 ft 423 kts 226°
2026-05-07 11:09 58.78403 9.97462 32164 ft 422 kts 225°
2026-05-07 11:09 58.76144 9.93861 32528 ft 421 kts 225°
2026-05-07 11:09 58.73915 9.90319 32877 ft 420 kts 225°
2026-05-07 11:09 58.71663 9.86748 33204 ft 420 kts 225°
2026-05-07 11:10 58.69407 9.83178 33533 ft 419 kts 225°
2026-05-07 11:10 58.67155 9.79622 33886 ft 419 kts 225°
2026-05-07 11:10 58.64907 9.76076 34157 ft 418 kts 225°
2026-05-07 11:10 58.63628 9.74059 34245 ft 420 kts 225°
2026-05-07 11:11 58.61363 9.70492 34411 ft 422 kts 225°
2026-05-07 11:11 58.59090 9.66923 34690 ft 421 kts 224°
2026-05-07 11:11 58.56826 9.63380 34985 ft 420 kts 224°
2026-05-07 11:11 58.54566 9.59843 35240 ft 420 kts 224°
2026-05-07 11:12 58.52303 9.56306 35460 ft 420 kts 224°
2026-05-07 11:12 58.50037 9.52772 35701 ft 420 kts 224°
2026-05-07 11:12 58.47775 9.49250 35960 ft 419 kts 224°
2026-05-07 11:12 58.45513 9.45734 36120 ft 421 kts 224°
2026-05-07 11:13 58.40941 9.38642 36116 ft 424 kts 223°
2026-05-07 11:13 58.36380 9.31599 36118 ft 419 kts 224°
2026-05-07 11:14 58.31864 9.24649 36124 ft 416 kts 224°
2026-05-07 11:14 58.27362 9.17741 36116 ft 415 kts 224°
2026-05-07 11:15 58.22870 9.10870 36122 ft 415 kts 224°
2026-05-07 11:15 58.18369 9.04008 36121 ft 415 kts 223°
2026-05-07 11:16 58.13859 8.97154 36108 ft 416 kts 223°
2026-05-07 11:16 58.09368 8.90355 36122 ft 417 kts 223°
2026-05-07 11:17 58.04823 8.83495 36123 ft 419 kts 223°
2026-05-07 11:17 58.00246 8.76611 36113 ft 421 kts 223°
2026-05-07 11:18 57.95653 8.69726 36125 ft 423 kts 223°
2026-05-07 11:18 57.91039 8.62834 36120 ft 424 kts 223°
2026-05-07 11:19 57.86406 8.55936 36113 ft 425 kts 222°
2026-05-07 11:19 57.81767 8.49054 36119 ft 425 kts 222°
2026-05-07 11:20 57.77125 8.42190 36115 ft 425 kts 222°
2026-05-07 11:20 57.72483 8.35351 36115 ft 424 kts 222°
2026-05-07 11:21 57.67853 8.28553 36111 ft 423 kts 222°
2026-05-07 11:21 57.63231 8.21784 36100 ft 422 kts 221°
2026-05-07 11:22 57.58616 8.15050 36113 ft 421 kts 221°
2026-05-07 11:22 57.53999 8.08340 36115 ft 420 kts 221°
2026-05-07 11:23 57.49389 8.01660 36111 ft 420 kts 221°
2026-05-07 11:23 57.44771 7.94983 36113 ft 421 kts 221°
2026-05-07 11:24 57.40180 7.88370 36092 ft 421 kts 221°
2026-05-07 11:24 57.35542 7.81711 36110 ft 422 kts 221°
2026-05-07 11:25 57.30894 7.75059 36118 ft 423 kts 221°
2026-05-07 11:25 57.26226 7.68406 36116 ft 424 kts 221°
2026-05-07 11:26 57.21539 7.61745 36112 ft 426 kts 221°
2026-05-07 11:26 57.16840 7.55086 36114 ft 426 kts 220°
2026-05-07 11:27 57.12131 7.48438 36104 ft 426 kts 220°
2026-05-07 11:27 57.07423 7.41816 36113 ft 426 kts 220°
2026-05-07 11:28 57.02707 7.35202 36112 ft 427 kts 220°
2026-05-07 11:28 56.97986 7.28601 36114 ft 427 kts 220°
2026-05-07 11:29 56.93261 7.22017 36114 ft 426 kts 220°
2026-05-07 11:29 56.88538 7.15459 36102 ft 426 kts 220°
2026-05-07 11:30 56.83813 7.08917 36120 ft 426 kts 220°
2026-05-07 11:30 56.79084 7.02390 36112 ft 426 kts 220°
2026-05-07 11:31 56.74348 6.95878 36120 ft 426 kts 219°
2026-05-07 11:31 56.69609 6.89379 36113 ft 427 kts 219°
2026-05-07 11:32 56.62487 6.79654 36103 ft 427 kts 219°
2026-05-07 11:33 56.57736 6.73192 36115 ft 427 kts 219°
2026-05-07 11:33 56.53010 6.66784 36117 ft 427 kts 219°
2026-05-07 11:34 56.48242 6.60341 36114 ft 428 kts 219°
2026-05-07 11:34 56.43435 6.53867 36118 ft 428 kts 219°
2026-05-07 11:35 56.38649 6.47443 36109 ft 429 kts 218°
2026-05-07 11:35 56.33858 6.41024 36118 ft 429 kts 218°
2026-05-07 11:36 56.29095 6.34669 36111 ft 429 kts 218°
2026-05-07 11:36 56.24287 6.28279 36119 ft 430 kts 218°
2026-05-07 11:37 56.19477 6.21903 36117 ft 430 kts 218°
2026-05-07 11:37 56.14657 6.15535 36108 ft 430 kts 218°
2026-05-07 11:38 56.09838 6.09186 36120 ft 430 kts 218°
2026-05-07 11:38 56.05015 6.02855 36121 ft 430 kts 218°
2026-05-07 11:39 56.00184 5.96531 36124 ft 430 kts 218°
2026-05-07 11:39 55.95347 5.90222 36120 ft 431 kts 218°
2026-05-07 11:40 55.90505 5.83925 36124 ft 431 kts 218°
2026-05-07 11:40 55.85657 5.77640 36124 ft 431 kts 217°
2026-05-07 11:41 55.80809 5.71375 36121 ft 430 kts 217°
2026-05-07 11:41 55.75966 5.65132 36124 ft 430 kts 217°
2026-05-07 11:42 55.71937 5.59956 36128 ft 430 kts 217°
2026-05-07 11:42 55.67091 5.53749 36125 ft 430 kts 217°
2026-05-07 11:43 55.62243 5.47559 36119 ft 429 kts 217°
2026-05-07 11:43 55.57391 5.41383 36128 ft 430 kts 217°
2026-05-07 11:44 55.52539 5.35225 36120 ft 430 kts 217°
2026-05-07 11:44 55.47676 5.29072 36124 ft 431 kts 217°
2026-05-07 11:45 55.42799 5.22920 36124 ft 431 kts 217°
2026-05-07 11:45 55.37917 5.16778 36115 ft 431 kts 216°
2026-05-07 11:46 55.33030 5.10654 36122 ft 432 kts 216°
2026-05-07 11:46 55.28133 5.04530 36127 ft 432 kts 216°
2026-05-07 11:47 55.23168 4.98551 36118 ft 434 kts 211°
2026-05-07 11:47 55.17860 4.93506 36117 ft 435 kts 208°
2026-05-07 11:48 55.12526 4.88641 36118 ft 436 kts 208°
2026-05-07 11:48 55.07168 4.83688 36124 ft 436 kts 208°
2026-05-07 11:49 55.01814 4.78694 36133 ft 437 kts 209°
2026-05-07 11:49 54.96458 4.73698 36115 ft 437 kts 209°
2026-05-07 11:50 54.91100 4.68713 36112 ft 437 kts 208°
2026-05-07 11:50 54.85743 4.63744 36130 ft 437 kts 208°
2026-05-07 11:51 54.80378 4.58785 36126 ft 437 kts 208°
2026-05-07 11:51 54.75007 4.53834 36118 ft 437 kts 208°
2026-05-07 11:52 54.69640 4.48904 36118 ft 437 kts 208°
2026-05-07 11:52 54.64265 4.43980 36108 ft 437 kts 208°
2026-05-07 11:53 54.58883 4.39066 36126 ft 438 kts 208°
2026-05-07 11:53 54.53488 4.34152 36124 ft 439 kts 208°
2026-05-07 11:54 54.48091 4.29248 36128 ft 439 kts 208°
2026-05-07 11:54 54.42689 4.24352 36133 ft 439 kts 208°
2026-05-07 11:55 54.37281 4.19464 36127 ft 439 kts 207°
2026-05-07 11:55 54.31912 4.14625 36125 ft 439 kts 207°
2026-05-07 11:56 54.26501 4.09764 36129 ft 439 kts 207°
2026-05-07 11:56 54.21092 4.04920 36118 ft 439 kts 207°
2026-05-07 11:57 54.15683 4.00089 36118 ft 439 kts 207°
2026-05-07 11:57 54.10270 3.95271 36128 ft 439 kts 207°
2026-05-07 11:58 54.04848 3.90455 36119 ft 440 kts 207°
2026-05-07 11:58 53.99412 3.85643 36124 ft 441 kts 207°
2026-05-07 11:59 53.93971 3.80843 36125 ft 441 kts 207°
2026-05-07 11:59 53.88524 3.76048 36119 ft 441 kts 207°
2026-05-07 12:00 53.83066 3.71257 36120 ft 442 kts 206°
2026-05-07 12:00 53.77611 3.66483 36128 ft 442 kts 207°
2026-05-07 12:01 53.72150 3.61717 36136 ft 441 kts 206°
2026-05-07 12:01 53.66692 3.56967 36117 ft 441 kts 206°
2026-05-07 12:02 53.61241 3.52235 36126 ft 441 kts 206°
2026-05-07 12:02 53.55788 3.47515 36124 ft 441 kts 206°
2026-05-07 12:03 53.50338 3.42815 36128 ft 440 kts 206°
2026-05-07 12:03 53.44929 3.38159 36131 ft 439 kts 206°
2026-05-07 12:04 53.39489 3.33494 36126 ft 439 kts 206°
2026-05-07 12:04 53.34047 3.28872 36129 ft 439 kts 206°
2026-05-07 12:05 53.28607 3.24265 36123 ft 438 kts 206°
2026-05-07 12:05 53.23168 3.19668 36124 ft 438 kts 206°
2026-05-07 12:06 53.17739 3.15065 36119 ft 438 kts 206°
2026-05-07 12:06 53.12307 3.10470 36117 ft 438 kts 206°
2026-05-07 12:06 53.09584 3.08180 35821 ft 439 kts 206°
2026-05-07 12:07 53.06876 3.05909 35514 ft 433 kts 206°
2026-05-07 12:07 53.04200 3.03669 35103 ft 429 kts 205°
2026-05-07 12:07 53.01544 3.01448 34716 ft 425 kts 205°
2026-05-07 12:07 52.98909 2.99245 34325 ft 423 kts 205°
2026-05-07 12:08 52.96290 2.97060 33874 ft 421 kts 205°
2026-05-07 12:08 52.93685 2.94889 33429 ft 418 kts 205°
2026-05-07 12:08 52.91098 2.92731 33015 ft 415 kts 205°
2026-05-07 12:08 52.88530 2.90588 32610 ft 411 kts 205°
2026-05-07 12:09 52.85986 2.88466 32217 ft 408 kts 205°
2026-05-07 12:09 52.83460 2.86363 31827 ft 405 kts 205°
2026-05-07 12:09 52.80951 2.84275 31435 ft 402 kts 205°
2026-05-07 12:09 52.78453 2.82202 31052 ft 400 kts 205°
2026-05-07 12:10 52.75978 2.80149 30669 ft 397 kts 205°
2026-05-07 12:10 52.73515 2.78112 30303 ft 395 kts 205°
2026-05-07 12:10 52.71066 2.76090 29876 ft 392 kts 205°
2026-05-07 12:10 52.68665 2.74113 29450 ft 389 kts 205°
2026-05-07 12:11 52.66257 2.72130 29038 ft 385 kts 205°
2026-05-07 12:11 52.63869 2.70165 28652 ft 382 kts 205°
2026-05-07 12:11 52.61505 2.68223 28251 ft 378 kts 205°
2026-05-07 12:11 52.59161 2.66299 27867 ft 375 kts 205°
2026-05-07 12:12 52.56835 2.64391 27496 ft 372 kts 205°
2026-05-07 12:12 52.54532 2.62504 27124 ft 369 kts 205°
2026-05-07 12:12 52.52247 2.60634 26769 ft 365 kts 205°
2026-05-07 12:12 52.49980 2.58782 26402 ft 363 kts 205°
2026-05-07 12:13 52.47728 2.56944 26072 ft 359 kts 206°
2026-05-07 12:13 52.45519 2.55145 25980 ft 349 kts 205°
2026-05-07 12:13 52.43349 2.53382 25875 ft 350 kts 205°
2026-05-07 12:13 52.41139 2.51591 25792 ft 359 kts 205°
2026-05-07 12:14 52.38884 2.49763 25681 ft 363 kts 206°
2026-05-07 12:14 52.36628 2.47935 25558 ft 360 kts 206°
2026-05-07 12:14 52.34392 2.46125 25444 ft 357 kts 205°
2026-05-07 12:14 52.32174 2.44330 25332 ft 355 kts 205°
2026-05-07 12:15 52.29969 2.42550 25217 ft 352 kts 205°
2026-05-07 12:15 52.27776 2.40781 25121 ft 351 kts 206°
2026-05-07 12:15 52.25591 2.39021 25017 ft 350 kts 206°
2026-05-07 12:15 52.23412 2.37268 24914 ft 349 kts 206°
2026-05-07 12:16 52.21237 2.35517 24808 ft 349 kts 206°
2026-05-07 12:16 52.19062 2.33770 24706 ft 348 kts 206°
2026-05-07 12:16 52.16888 2.32026 24593 ft 348 kts 206°
2026-05-07 12:16 52.14715 2.30284 24495 ft 348 kts 206°
2026-05-07 12:17 52.12542 2.28545 24398 ft 348 kts 206°
2026-05-07 12:17 52.10368 2.26809 24287 ft 348 kts 206°
2026-05-07 12:17 52.08195 2.25072 24181 ft 348 kts 206°
2026-05-07 12:17 52.06024 2.23340 24078 ft 348 kts 206°
2026-05-07 12:18 52.03851 2.21608 23971 ft 348 kts 206°
2026-05-07 12:18 52.01679 2.19877 23861 ft 348 kts 206°
2026-05-07 12:18 51.99511 2.18152 23762 ft 347 kts 206°
2026-05-07 12:18 51.97343 2.16429 23644 ft 346 kts 206°
2026-05-07 12:19 51.95185 2.14715 23525 ft 345 kts 206°
2026-05-07 12:19 51.93030 2.13005 23405 ft 344 kts 206°
2026-05-07 12:19 51.90886 2.11306 23301 ft 343 kts 206°
2026-05-07 12:19 51.88750 2.09615 23188 ft 341 kts 206°
2026-05-07 12:20 51.86623 2.07934 23083 ft 340 kts 206°
2026-05-07 12:20 51.84500 2.06257 22984 ft 339 kts 206°
2026-05-07 12:20 51.82383 2.04586 22883 ft 338 kts 206°
2026-05-07 12:20 51.80268 2.02917 22780 ft 338 kts 206°
2026-05-07 12:21 51.78159 2.01255 22673 ft 337 kts 206°
2026-05-07 12:21 51.76051 1.99597 22578 ft 337 kts 206°
2026-05-07 12:21 51.73942 1.97938 22474 ft 337 kts 206°
2026-05-07 12:21 51.71836 1.96283 22374 ft 337 kts 206°
2026-05-07 12:22 51.69730 1.94631 22274 ft 337 kts 206°
2026-05-07 12:22 51.67625 1.92983 22177 ft 337 kts 206°
2026-05-07 12:22 51.65554 1.91238 22038 ft 337 kts 214°
2026-05-07 12:22 51.63846 1.88633 21592 ft 340 kts 229°
2026-05-07 12:23 51.62323 1.85778 21127 ft 342 kts 229°
2026-05-07 12:23 51.60780 1.82885 20655 ft 338 kts 229°
2026-05-07 12:23 51.59256 1.80055 20195 ft 331 kts 229°
2026-05-07 12:23 51.57752 1.77289 19756 ft 325 kts 229°
2026-05-07 12:24 51.56272 1.74582 19324 ft 320 kts 229°
2026-05-07 12:24 51.54810 1.71919 18901 ft 316 kts 229°
2026-05-07 12:24 51.53362 1.69287 18487 ft 313 kts 229°
2026-05-07 12:24 51.51926 1.66683 18036 ft 310 kts 229°
2026-05-07 12:25 51.50498 1.64097 17577 ft 308 kts 229°
2026-05-07 12:25 51.49109 1.61511 17151 ft 304 kts 234°
2026-05-07 12:25 51.48196 1.58480 16791 ft 301 kts 250°
2026-05-07 12:25 51.47492 1.55293 16363 ft 306 kts 250°
2026-05-07 12:26 51.46778 1.52069 15949 ft 308 kts 250°
2026-05-07 12:26 51.46052 1.48841 15525 ft 307 kts 250°
2026-05-07 12:26 51.45322 1.45641 15111 ft 305 kts 250°
2026-05-07 12:26 51.44587 1.42454 14699 ft 304 kts 249°
2026-05-07 12:27 51.43844 1.39292 14297 ft 303 kts 246°
2026-05-07 12:27 51.42657 1.36566 14043 ft 295 kts 224°
2026-05-07 12:27 51.41099 1.34462 13885 ft 294 kts 217°
2026-05-07 12:27 51.39441 1.32506 13715 ft 299 kts 216°
2026-05-07 12:28 51.37739 1.30553 13536 ft 302 kts 216°
2026-05-07 12:28 51.36038 1.28601 13360 ft 300 kts 216°
2026-05-07 12:28 51.34470 1.26440 13141 ft 298 kts 233°
2026-05-07 12:28 51.33362 1.23670 12994 ft 295 kts 238°
2026-05-07 12:29 51.32299 1.20868 12804 ft 295 kts 238°
2026-05-07 12:29 51.31594 1.19016 12686 ft 294 kts 238°
2026-05-07 12:29 51.30162 1.15284 12458 ft 294 kts 238°
2026-05-07 12:29 51.29087 1.12511 12281 ft 294 kts 238°
2026-05-07 12:30 51.28006 1.09739 12130 ft 293 kts 237°
2026-05-07 12:30 51.27291 1.07911 12010 ft 293 kts 237°
2026-05-07 12:30 51.26210 1.05157 11861 ft 292 kts 237°
2026-05-07 12:30 51.25129 1.02410 11689 ft 292 kts 237°
2026-05-07 12:31 51.24046 0.99664 11520 ft 292 kts 237°
2026-05-07 12:31 51.22963 0.96927 11367 ft 291 kts 237°
2026-05-07 12:31 51.21883 0.94200 11194 ft 291 kts 237°
2026-05-07 12:31 51.20801 0.91471 10982 ft 291 kts 237°
2026-05-07 12:32 51.19720 0.88750 10812 ft 290 kts 237°
2026-05-07 12:32 51.18641 0.86036 10639 ft 289 kts 237°
2026-05-07 12:32 51.17565 0.83333 10465 ft 288 kts 237°
2026-05-07 12:32 51.16492 0.80638 10287 ft 288 kts 237°
2026-05-07 12:33 51.14366 0.75310 9933 ft 280 kts 237°
2026-05-07 12:33 51.13335 0.72729 9754 ft 273 kts 237°
2026-05-07 12:33 51.12325 0.70203 9582 ft 268 kts 237°
2026-05-07 12:34 51.11338 0.67738 9428 ft 268 kts 237°
2026-05-07 12:34 51.10337 0.65243 9274 ft 268 kts 237°
2026-05-07 12:34 51.09333 0.62740 9118 ft 268 kts 237°
2026-05-07 12:34 51.08326 0.60233 8961 ft 270 kts 237°
2026-05-07 12:35 51.07316 0.57718 8808 ft 270 kts 237°
2026-05-07 12:35 51.06302 0.55198 8649 ft 271 kts 237°
2026-05-07 12:35 51.05284 0.52673 8506 ft 271 kts 237°
2026-05-07 12:35 51.04265 0.50145 8338 ft 272 kts 237°
2026-05-07 12:36 51.03242 0.47609 8193 ft 272 kts 237°
2026-05-07 12:36 51.02228 0.45100 8050 ft 268 kts 237°
2026-05-07 12:36 51.01227 0.42623 7895 ft 264 kts 237°
2026-05-07 12:36 51.00239 0.40180 7751 ft 262 kts 236°
2026-05-07 12:37 50.99259 0.37758 7617 ft 261 kts 237°
2026-05-07 12:37 50.98279 0.35339 7483 ft 261 kts 237°
2026-05-07 12:37 50.97300 0.32927 7340 ft 257 kts 237°
2026-05-07 12:37 50.96342 0.30570 7198 ft 251 kts 237°
2026-05-07 12:38 50.95449 0.28238 7058 ft 245 kts 246°
2026-05-07 12:38 50.95227 0.25607 6789 ft 246 kts 280°
2026-05-07 12:38 50.95937 0.23140 6413 ft 250 kts 304°
2026-05-07 12:38 50.97019 0.20920 5861 ft 256 kts 308°
2026-05-07 12:39 50.98151 0.18728 5375 ft 257 kts 308°
2026-05-07 12:39 50.99278 0.16519 4906 ft 257 kts 308°
2026-05-07 12:39 51.00387 0.14283 4443 ft 257 kts 303°
2026-05-07 12:39 51.01010 0.11754 4306 ft 240 kts 275°
2026-05-07 12:40 51.01075 0.09182 4136 ft 229 kts 271°
2026-05-07 12:40 51.01114 0.06665 3746 ft 228 kts 271°
2026-05-07 12:40 51.01154 0.04216 3716 ft 216 kts 271°
2026-05-07 12:40 51.01192 0.01831 3725 ft 218 kts 271°
2026-05-07 12:41 51.01226 -0.00626 3935 ft 226 kts 271°
2026-05-07 12:41 51.01260 -0.03139 3982 ft 229 kts 271°
2026-05-07 12:41 51.01292 -0.05652 3999 ft 228 kts 271°
2026-05-07 12:41 51.01322 -0.08166 3988 ft 228 kts 271°
2026-05-07 12:42 51.01354 -0.10670 3993 ft 227 kts 271°
2026-05-07 12:42 51.01385 -0.13173 3993 ft 226 kts 271°
2026-05-07 12:42 51.01415 -0.15661 3998 ft 224 kts 271°
2026-05-07 12:42 51.01443 -0.18081 3987 ft 220 kts 271°
2026-05-07 12:43 51.01471 -0.20493 3997 ft 217 kts 271°
2026-05-07 12:43 51.01499 -0.22919 4007 ft 216 kts 271°
2026-05-07 12:43 51.01524 -0.25255 3939 ft 211 kts 271°
2026-05-07 12:43 51.01548 -0.27546 3785 ft 204 kts 271°
2026-05-07 12:44 51.01572 -0.29835 3410 ft 206 kts 271°
2026-05-07 12:44 51.01623 -0.32069 3096 ft 204 kts 277°
2026-05-07 12:44 51.01875 -0.34298 3026 ft 206 kts 277°
2026-05-07 12:44 51.02030 -0.36562 3001 ft 205 kts 276°
2026-05-07 12:45 51.02186 -0.38816 2994 ft 205 kts 277°
2026-05-07 12:45 51.02515 -0.41016 3007 ft 205 kts 287°
2026-05-07 12:45 51.02942 -0.43180 3001 ft 206 kts 287°
2026-05-07 12:45 51.03428 -0.45317 2997 ft 206 kts 293°
2026-05-07 12:46 51.03979 -0.47427 2996 ft 207 kts 291°
2026-05-07 12:46 51.04512 -0.49558 2996 ft 206 kts 291°
2026-05-07 12:46 51.05259 -0.51429 2982 ft 198 kts 320°
2026-05-07 12:46 51.06486 -0.52252 2987 ft 193 kts 358°
2026-05-07 12:47 51.07753 -0.51673 2999 ft 193 kts 35°
2026-05-07 12:47 51.08813 -0.50330 3016 ft 197 kts 40°
2026-05-07 12:47 51.09862 -0.48902 3006 ft 199 kts 40°
2026-05-07 12:47 51.10821 -0.47347 2981 ft 197 kts 60°
2026-05-07 12:48 51.11150 -0.45296 3016 ft 192 kts 84°
2026-05-07 12:48 51.11486 -0.43232 3007 ft 194 kts 70°
2026-05-07 12:48 51.11842 -0.41152 2834 ft 194 kts 79°
2026-05-07 12:48 51.12096 -0.39047 2584 ft 193 kts 79°
2026-05-07 12:49 51.12366 -0.36976 2310 ft 188 kts 78°
2026-05-07 12:49 51.12635 -0.34983 2054 ft 180 kts 78°
2026-05-07 12:49 51.12893 -0.33085 1821 ft 170 kts 78°
2026-05-07 12:49 51.13134 -0.31314 1637 ft 158 kts 78°
2026-05-07 12:50 51.13362 -0.29642 1397 ft 152 kts 79°
2026-05-07 12:50 51.13581 -0.28000 1172 ft 150 kts 79°
2026-05-07 12:50 51.13793 -0.26461 980 ft 146 kts 77°
2026-05-07 12:50 51.14008 -0.24882 762 ft 146 kts 78°
2026-05-07 12:51 51.14228 -0.23317 568 ft 144 kts 77°
2026-05-07 12:51 51.14436 -0.21788 382 ft 140 kts 78°
2026-05-07 12:51 51.14641 -0.20277 223 ft 138 kts 78°
2026-05-07 12:51 51.14824 -0.18949 207 ft 97 kts 78°
2026-05-07 12:52 51.14933 -0.18169 207 ft 57 kts 77°
2026-05-07 12:52 51.15040 -0.17826 205 ft 18 kts 51°
2026-05-07 12:52 51.15096 -0.17752 209 ft 5 kts 359°
2026-05-07 12:52 51.15099 -0.17753 204 ft 0 kts 353°
2026-05-07 12:54 51.15129 -0.17758 207 ft 10 kts 353°
2026-05-07 12:54 51.15213 -0.17775 204 ft 10 kts 354°
2026-05-07 12:54 51.15263 -0.17721 208 ft 9 kts 68°
2026-05-07 12:54 51.15276 -0.17619 206 ft 9 kts 77°
2026-05-07 12:55 51.15290 -0.17521 206 ft 9 kts 78°
2026-05-07 12:55 51.15301 -0.17424 214 ft 9 kts 78°
2026-05-07 12:55 51.15336 -0.17363 209 ft 8 kts 17°
2026-05-07 12:55 51.15367 -0.17292 207 ft 10 kts 76°
2026-05-07 12:56 51.15395 -0.17160 208 ft 14 kts 61°
2026-05-07 12:56 51.15421 -0.17020 207 ft 13 kts 77°
2026-05-07 12:56 51.15440 -0.16882 203 ft 13 kts 78°
2026-05-07 12:56 51.15449 -0.16746 203 ft 12 kts 106°
2026-05-07 12:57 51.15455 -0.16614 206 ft 12 kts 78°
2026-05-07 12:57 51.15475 -0.16523 212 ft 4 kts 29°
2026-05-07 12:57 51.15505 -0.16523 203 ft 4 kts 346°
2026-05-07 12:57 51.15534 -0.16533 212 ft 4 kts 348°
2026-05-07 12:58 51.15539 -0.16535 203 ft 0 kts 348°